UAE59U OMDB-OBBI

Flight info

Callsign UAE59U
Flight time N/A
Altitude 38000
Route ANVI7F ANVIX R401 GIDIS G783 RIGIL M628 AMBAG M321 KSA H744 KINIB N687 KFA J749 SIBGA N318 LADNA LADNA1
Aircraft A359/H-SDE2E3GHIJ1J3J4J5LM1ORWXY/LB1D1

Departure

Time 2026-04-25 20:58
Airport Dubai International Airport (OMDB)

Arrival

Time N/A
Airport Bahrain International Airport (OBBI)
Time Latitude Longitude Altitude Speed Heading
2026-04-25 20:21 25.24535 55.36563 27 ft 0 kts 357°
2026-04-25 20:41 25.24516 55.36563 27 ft 3 kts 357°
2026-04-25 20:41 25.24493 55.36564 25 ft 3 kts 357°
2026-04-25 20:41 25.24474 55.36565 26 ft 2 kts 357°
2026-04-25 20:42 25.24454 55.36563 25 ft 3 kts 41°
2026-04-25 20:42 25.24447 55.36546 27 ft 3 kts 93°
2026-04-25 20:42 25.24449 55.36521 24 ft 3 kts 102°
2026-04-25 20:42 25.24455 55.36498 27 ft 3 kts 113°
2026-04-25 20:43 25.24465 55.36475 25 ft 3 kts 119°
2026-04-25 20:43 25.24472 55.36460 25 ft 2 kts 118°
2026-04-25 20:45 25.24470 55.36465 25 ft 2 kts 117°
2026-04-25 20:46 25.24456 55.36500 27 ft 7 kts 111°
2026-04-25 20:46 25.24448 55.36564 25 ft 10 kts 86°
2026-04-25 20:46 25.24473 55.36640 27 ft 12 kts 56°
2026-04-25 20:46 25.24540 55.36702 27 ft 14 kts 30°
2026-04-25 20:47 25.24602 55.36743 27 ft 15 kts 31°
2026-04-25 20:47 25.24692 55.36803 28 ft 14 kts 31°
2026-04-25 20:47 25.24761 55.36797 28 ft 10 kts 312°
2026-04-25 20:47 25.24785 55.36716 28 ft 13 kts 283°
2026-04-25 20:48 25.24819 55.36617 28 ft 15 kts 295°
2026-04-25 20:48 25.24876 55.36510 28 ft 17 kts 302°
2026-04-25 20:48 25.24942 55.36392 28 ft 19 kts 302°
2026-04-25 20:48 25.25016 55.36260 27 ft 21 kts 302°
2026-04-25 20:49 25.25098 55.36116 28 ft 23 kts 302°
2026-04-25 20:49 25.25186 55.35959 27 ft 25 kts 302°
2026-04-25 20:49 25.25279 55.35794 27 ft 26 kts 301°
2026-04-25 20:49 25.25379 55.35616 27 ft 28 kts 302°
2026-04-25 20:50 25.25484 55.35428 27 ft 29 kts 302°
2026-04-25 20:50 25.25578 55.35262 27 ft 19 kts 302°
2026-04-25 20:50 25.25638 55.35167 27 ft 10 kts 320°
2026-04-25 20:50 25.25702 55.35169 27 ft 10 kts 28°
2026-04-25 20:51 25.25768 55.35214 27 ft 12 kts 30°
2026-04-25 20:51 25.25849 55.35267 27 ft 14 kts 31°
2026-04-25 20:51 25.25941 55.35330 28 ft 16 kts 34°
2026-04-25 20:51 25.26007 55.35437 28 ft 18 kts 75°
2026-04-25 20:52 25.25982 55.35569 28 ft 19 kts 121°
2026-04-25 20:52 25.25933 55.35656 28 ft 20 kts 122°
2026-04-25 20:52 25.25828 55.35842 28 ft 22 kts 121°
2026-04-25 20:52 25.25743 55.35993 29 ft 24 kts 122°
2026-04-25 20:53 25.25653 55.36154 29 ft 25 kts 122°
2026-04-25 20:53 25.25558 55.36322 28 ft 27 kts 122°
2026-04-25 20:53 25.25457 55.36502 28 ft 28 kts 122°
2026-04-25 20:53 25.25351 55.36690 28 ft 29 kts 121°
2026-04-25 20:54 25.25248 55.36874 28 ft 24 kts 122°
2026-04-25 20:54 25.25156 55.37038 29 ft 25 kts 122°
2026-04-25 20:54 25.25060 55.37208 30 ft 27 kts 122°
2026-04-25 20:54 25.24961 55.37383 30 ft 28 kts 122°
2026-04-25 20:55 25.24857 55.37570 29 ft 29 kts 122°
2026-04-25 20:55 25.24759 55.37743 29 ft 24 kts 122°
2026-04-25 20:55 25.24685 55.37874 28 ft 13 kts 122°
2026-04-25 20:55 25.24668 55.37949 29 ft 8 kts 68°
2026-04-25 20:56 25.24697 55.37976 29 ft 4 kts 33°
2026-04-25 20:56 25.24724 55.37995 30 ft 5 kts 32°
2026-04-25 20:56 25.24757 55.38015 31 ft 6 kts 21°
2026-04-25 20:56 25.24800 55.38014 31 ft 7 kts 341°
2026-04-25 20:57 25.24835 55.37973 31 ft 9 kts 302°
2026-04-25 20:57 25.24873 55.37905 32 ft 17 kts 302°
2026-04-25 20:57 25.25041 55.37603 33 ft 82 kts 302°
2026-04-25 20:57 25.25460 55.36848 30 ft 147 kts 301°
2026-04-25 20:58 25.26084 55.35719 258 ft 181 kts 300°
2026-04-25 20:58 25.26690 55.34585 1187 ft 168 kts 302°
2026-04-25 20:58 25.27106 55.33837 1568 ft 178 kts 303°
2026-04-25 20:58 25.27979 55.32287 2359 ft 178 kts 303°
2026-04-25 20:59 25.28631 55.31115 2921 ft 181 kts 302°
2026-04-25 20:59 25.29127 55.29812 3461 ft 188 kts 284°
2026-04-25 20:59 25.29165 55.28847 3836 ft 193 kts 266°
2026-04-25 20:59 25.28751 55.27396 4345 ft 203 kts 248°
2026-04-25 21:00 25.27925 55.25497 5063 ft 210 kts 245°
2026-04-25 21:00 25.27706 55.25005 5255 ft 211 kts 246°
2026-04-25 21:00 25.26206 55.21561 6603 ft 218 kts 246°
2026-04-25 21:01 25.25525 55.19975 6897 ft 239 kts 246°
2026-04-25 21:01 25.24717 55.18332 6958 ft 251 kts 235°
2026-04-25 21:01 25.23393 55.17092 6984 ft 253 kts 205°
2026-04-25 21:01 25.21641 55.16706 6985 ft 263 kts 180°
2026-04-25 21:02 25.19804 55.16975 7101 ft 269 kts 162°
2026-04-25 21:02 25.18187 55.18061 7494 ft 283 kts 134°
2026-04-25 21:02 25.17093 55.19866 8100 ft 290 kts 118°
2026-04-25 21:02 25.16155 55.21861 8902 ft 294 kts 118°
2026-04-25 21:03 25.15212 55.23880 9730 ft 297 kts 119°
2026-04-25 21:03 25.14242 55.25929 10496 ft 301 kts 119°
2026-04-25 21:03 25.13270 55.27971 11228 ft 306 kts 119°
2026-04-25 21:03 25.12263 55.30079 12005 ft 311 kts 120°
2026-04-25 21:04 25.11240 55.32204 12770 ft 315 kts 120°
2026-04-25 21:04 25.10228 55.34334 13535 ft 320 kts 118°
2026-04-25 21:04 25.09288 55.36587 14244 ft 324 kts 116°
2026-04-25 21:04 25.08373 55.38878 14967 ft 327 kts 116°
2026-04-25 21:05 25.07445 55.41179 15701 ft 330 kts 116°
2026-04-25 21:05 25.06511 55.43518 16318 ft 338 kts 115°
2026-04-25 21:05 25.05576 55.45969 16640 ft 355 kts 115°
2026-04-25 21:05 25.04596 55.48550 16924 ft 372 kts 115°
2026-04-25 21:06 25.03583 55.51201 17184 ft 387 kts 115°
2026-04-25 21:06 25.02509 55.53993 17452 ft 400 kts 115°
2026-04-25 21:06 25.01230 55.56777 17749 ft 409 kts 122°
2026-04-25 21:06 25.00276 55.58581 18074 ft 413 kts 123°
2026-04-25 21:07 24.98311 55.62210 18703 ft 418 kts 123°
2026-04-25 21:07 24.96808 55.64983 19160 ft 422 kts 123°
2026-04-25 21:07 24.95295 55.67775 19651 ft 426 kts 123°
2026-04-25 21:07 24.93700 55.70539 20134 ft 428 kts 128°
2026-04-25 21:08 24.91948 55.73235 20653 ft 431 kts 129°
2026-04-25 21:08 24.90168 55.75915 21151 ft 435 kts 129°
2026-04-25 21:08 24.88392 55.78586 21648 ft 439 kts 129°
2026-04-25 21:08 24.86581 55.81311 22147 ft 443 kts 129°
2026-04-25 21:09 24.82768 55.86729 23148 ft 447 kts 136°
2026-04-25 21:09 24.80476 55.89013 23623 ft 447 kts 146°
2026-04-25 21:09 24.77875 55.90845 24049 ft 446 kts 155°
2026-04-25 21:10 24.75011 55.92182 24505 ft 445 kts 165°
2026-04-25 21:10 24.72029 55.92967 24972 ft 445 kts 174°
2026-04-25 21:10 24.68947 55.93207 25405 ft 445 kts 184°
2026-04-25 21:10 24.65883 55.92882 25886 ft 444 kts 193°
2026-04-25 21:11 24.62893 55.92004 26410 ft 443 kts 202°
2026-04-25 21:11 24.60076 55.90602 26848 ft 444 kts 212°
2026-04-25 21:11 24.57519 55.88712 27230 ft 446 kts 221°
2026-04-25 21:11 24.55279 55.86381 27746 ft 446 kts 230°
2026-04-25 21:12 24.53356 55.83677 28230 ft 447 kts 235°
2026-04-25 21:12 24.51465 55.81002 28691 ft 452 kts 231°
2026-04-25 21:12 24.49206 55.78565 29149 ft 458 kts 222°
2026-04-25 21:12 24.47476 55.77181 29492 ft 461 kts 215°
2026-04-25 21:13 24.43756 55.74857 30184 ft 465 kts 211°
2026-04-25 21:13 24.40886 55.73259 30521 ft 469 kts 209°
2026-04-25 21:13 24.37994 55.71529 30855 ft 469 kts 215°
2026-04-25 21:13 24.35339 55.69437 31202 ft 469 kts 221°
2026-04-25 21:14 24.32819 55.67198 31543 ft 471 kts 223°
2026-04-25 21:14 24.30298 55.64852 31878 ft 473 kts 224°
2026-04-25 21:14 24.27698 55.62636 32186 ft 479 kts 218°
2026-04-25 21:14 24.24827 55.60781 32442 ft 487 kts 210°
2026-04-25 21:15 24.21631 55.59382 32729 ft 494 kts 202°
2026-04-25 21:15 24.18382 55.58277 33135 ft 494 kts 200°
2026-04-25 21:15 24.15048 55.57252 33569 ft 494 kts 199°
2026-04-25 21:15 24.11757 55.56288 33987 ft 494 kts 199°
2026-04-25 21:16 24.08404 55.55320 34302 ft 494 kts 199°
2026-04-25 21:16 24.05105 55.54362 34557 ft 496 kts 199°
2026-04-25 21:16 24.01762 55.53384 34837 ft 497 kts 200°
2026-04-25 21:16 23.98444 55.52407 35104 ft 498 kts 200°
2026-04-25 21:17 23.95079 55.51413 35423 ft 497 kts 200°
2026-04-25 21:17 23.91769 55.50431 35710 ft 498 kts 200°
2026-04-25 21:17 23.88407 55.49431 35945 ft 499 kts 200°
2026-04-25 21:17 23.85065 55.48436 36184 ft 501 kts 200°
2026-04-25 21:18 23.81677 55.47434 36444 ft 502 kts 201°
2026-04-25 21:18 23.78328 55.46439 36676 ft 503 kts 201°
2026-04-25 21:18 23.74928 55.45428 36915 ft 504 kts 201°
2026-04-25 21:18 23.71566 55.44428 37152 ft 504 kts 201°
2026-04-25 21:19 23.68204 55.43429 37339 ft 506 kts 201°
2026-04-25 21:19 23.64774 55.42410 37526 ft 508 kts 201°
2026-04-25 21:19 23.61351 55.41396 37779 ft 509 kts 201°
2026-04-25 21:19 23.57937 55.40385 37888 ft 510 kts 201°
2026-04-25 21:20 23.52268 55.38710 37906 ft 509 kts 201°
2026-04-25 21:20 23.44265 55.36351 37895 ft 509 kts 201°
2026-04-25 21:21 23.37440 55.34331 37899 ft 511 kts 201°
2026-04-25 21:21 23.30588 55.32305 37896 ft 512 kts 201°
2026-04-25 21:22 23.23720 55.30280 37899 ft 512 kts 201°
2026-04-25 21:22 23.16820 55.28249 37897 ft 512 kts 201°
2026-04-25 21:23 23.10265 55.25607 37885 ft 498 kts 216°
2026-04-25 21:23 23.04917 55.21133 37887 ft 478 kts 234°
2026-04-25 21:24 23.01329 55.15234 37881 ft 460 kts 252°
2026-04-25 21:24 22.99684 55.08696 37884 ft 449 kts 267°
2026-04-25 21:25 22.98496 55.02005 37879 ft 452 kts 264°
2026-04-25 21:25 22.97250 54.95327 37876 ft 451 kts 263°
2026-04-25 21:26 22.95956 54.88671 37879 ft 451 kts 263°
2026-04-25 21:26 22.94640 54.82039 37878 ft 451 kts 263°
2026-04-25 21:27 22.93306 54.75349 37876 ft 451 kts 263°
2026-04-25 21:27 22.91980 54.68703 37877 ft 451 kts 263°
2026-04-25 21:28 22.90655 54.62073 37880 ft 451 kts 262°
2026-04-25 21:28 22.89325 54.55437 37883 ft 451 kts 262°
2026-04-25 21:29 22.87994 54.48802 37878 ft 451 kts 262°
2026-04-25 21:29 22.86655 54.42148 37882 ft 451 kts 262°
2026-04-25 21:30 22.85316 54.35513 37886 ft 451 kts 262°
2026-04-25 21:30 22.84197 54.29974 37888 ft 451 kts 262°
2026-04-25 21:31 22.82629 54.22230 37885 ft 451 kts 262°
2026-04-25 21:31 22.81283 54.15605 37885 ft 451 kts 262°
2026-04-25 21:32 22.79937 54.08988 37884 ft 451 kts 262°
2026-04-25 21:32 22.78804 54.03425 37885 ft 451 kts 262°